ZHONGXING-1E

Last updated on Mon Jun 22 2026 00:03:07 GMT+0000 (Coordinated Universal Time)

1 53813U 22112A 26172.54876942 -.00000151 00000+0 00000+0 0 9997 2 53813 0.0421 183.4778 0000561 137.9279 227.3046 1.00272232 13891
UTC large
Height (km)
Speed (km/s)
/
Latitude / Longitude
Inclination (degrees)
Orbital Period (minutes)
Azimuth
Elevation
Range (km)
Doppler Factor

Next 0 passes for location: London (51.5072 / 0.1276)

No passes found over London.
ZHONGXING-1E